,Coso Junction,Coso Junction
,PM10_1HR,PM10_1HR
,UG/M3,UG/M3
Date,Value,Null Code
01-Nov-2022 00:00,12,
01-Nov-2022 01:00,7.8,
01-Nov-2022 02:00,8.9,
01-Nov-2022 03:00,9.3,
01-Nov-2022 04:00,14.8,
01-Nov-2022 05:00,19.9,
01-Nov-2022 06:00,17.7,
01-Nov-2022 07:00,24.5,
01-Nov-2022 08:00,15,
01-Nov-2022 09:00,16.7,
01-Nov-2022 10:00,23.9,
01-Nov-2022 11:00,62,
01-Nov-2022 12:00,130.5,
01-Nov-2022 13:00,127.4,
01-Nov-2022 14:00,133.1,
01-Nov-2022 15:00,88.4,
01-Nov-2022 16:00,34.8,
01-Nov-2022 17:00,68.5,
01-Nov-2022 18:00,30.7,
01-Nov-2022 19:00,26.2,
01-Nov-2022 20:00,7.3,
01-Nov-2022 21:00,7.7,
01-Nov-2022 22:00,3.3,
01-Nov-2022 23:00,4.7,
02-Nov-2022 00:00,0.3,
02-Nov-2022 01:00,3.7,
02-Nov-2022 02:00,4.9,
02-Nov-2022 03:00,8.6,
02-Nov-2022 04:00,19.3,
02-Nov-2022 05:00,10.5,
02-Nov-2022 06:00,22.5,
02-Nov-2022 07:00,10.1,
02-Nov-2022 08:00,51.8,
02-Nov-2022 09:00,7.8,
02-Nov-2022 10:00,4.1,
02-Nov-2022 11:00,2,
02-Nov-2022 12:00,5.3,
02-Nov-2022 13:00,5.3,
02-Nov-2022 14:00,7.8,
02-Nov-2022 15:00,11.5,
02-Nov-2022 16:00,14.5,
02-Nov-2022 17:00,16.8,
02-Nov-2022 18:00,6.3,
02-Nov-2022 19:00,3.3,
02-Nov-2022 20:00,5.6,
02-Nov-2022 21:00,4.7,
02-Nov-2022 22:00,1,
02-Nov-2022 23:00,3.7,
03-Nov-2022 00:00,4.2,
03-Nov-2022 01:00,3.8,
03-Nov-2022 02:00,13.8,
03-Nov-2022 03:00,15.4,
03-Nov-2022 04:00,8.3,
03-Nov-2022 05:00,8.6,
03-Nov-2022 06:00,12.9,
03-Nov-2022 07:00,16.1,
03-Nov-2022 08:00,42.9,
03-Nov-2022 09:00,55.3,
03-Nov-2022 10:00,21.4,
03-Nov-2022 11:00,12,
03-Nov-2022 12:00,13.5,
03-Nov-2022 13:00,14.9,
03-Nov-2022 14:00,16.6,
03-Nov-2022 15:00,16.9,
03-Nov-2022 16:00,11.6,
03-Nov-2022 17:00,10.6,
03-Nov-2022 18:00,7.5,
03-Nov-2022 19:00,6.9,
03-Nov-2022 20:00,7.9,
03-Nov-2022 21:00,5.3,
03-Nov-2022 22:00,4.6,
03-Nov-2022 23:00,4.7,
04-Nov-2022 00:00,4.7,
04-Nov-2022 01:00,4.9,
04-Nov-2022 02:00,6.3,
04-Nov-2022 03:00,4.8,
04-Nov-2022 04:00,6.9,
04-Nov-2022 05:00,15,
04-Nov-2022 06:00,15.7,
04-Nov-2022 07:00,4.8,
04-Nov-2022 08:00,1.3,
04-Nov-2022 09:00,7.4,
04-Nov-2022 10:00,1.2,
04-Nov-2022 11:00,4,
04-Nov-2022 12:00,6.5,
04-Nov-2022 13:00,5.3,
04-Nov-2022 14:00,9.4,
04-Nov-2022 15:00,4.9,
04-Nov-2022 16:00,12.3,
04-Nov-2022 17:00,7.3,
04-Nov-2022 18:00,9.1,
04-Nov-2022 19:00,8.6,
04-Nov-2022 20:00,7.5,
04-Nov-2022 21:00,5.3,
04-Nov-2022 22:00,4.9,
04-Nov-2022 23:00,5.5,
05-Nov-2022 00:00,3.6,
05-Nov-2022 01:00,7.6,
05-Nov-2022 02:00,3.5,
05-Nov-2022 03:00,3.8,
05-Nov-2022 04:00,4.6,
05-Nov-2022 05:00,5.1,
05-Nov-2022 06:00,8.1,
05-Nov-2022 07:00,5.7,
05-Nov-2022 08:00,3.6,
05-Nov-2022 09:00,5.1,
05-Nov-2022 10:00,2.1,
05-Nov-2022 11:00,8.7,
05-Nov-2022 12:00,8.5,
05-Nov-2022 13:00,4.7,
05-Nov-2022 14:00,9.5,
05-Nov-2022 15:00,6.3,
05-Nov-2022 16:00,7,
05-Nov-2022 17:00,7.3,
05-Nov-2022 18:00,4.8,
05-Nov-2022 19:00,6.2,
05-Nov-2022 20:00,7.9,
05-Nov-2022 21:00,7.9,
05-Nov-2022 22:00,8.2,
05-Nov-2022 23:00,12,
06-Nov-2022 00:00,12,
06-Nov-2022 01:00,11,
06-Nov-2022 02:00,10.5,
06-Nov-2022 03:00,10.1,
06-Nov-2022 04:00,11.7,
06-Nov-2022 05:00,9.5,
06-Nov-2022 06:00,10.3,
06-Nov-2022 07:00,13.4,
06-Nov-2022 08:00,11.2,
06-Nov-2022 09:00,10.4,
06-Nov-2022 10:00,12.2,
06-Nov-2022 11:00,13.8,
06-Nov-2022 12:00,11.3,
06-Nov-2022 13:00,9.9,
06-Nov-2022 14:00,11.8,
06-Nov-2022 15:00,16.5,
06-Nov-2022 16:00,29.1,
06-Nov-2022 17:00,12.1,
06-Nov-2022 18:00,11.6,
06-Nov-2022 19:00,22.9,
06-Nov-2022 20:00,5,
06-Nov-2022 21:00,5.7,
06-Nov-2022 22:00,6.1,
06-Nov-2022 23:00,3.7,
07-Nov-2022 00:00,7.5,
07-Nov-2022 01:00,5.3,
07-Nov-2022 02:00,3.2,
07-Nov-2022 03:00,3.2,
07-Nov-2022 04:00,2.8,
07-Nov-2022 05:00,2.3,
07-Nov-2022 06:00,3.5,
07-Nov-2022 07:00,4.7,
07-Nov-2022 08:00,114.8,
07-Nov-2022 09:00,21.5,
07-Nov-2022 10:00,9.6,
07-Nov-2022 11:00,24.1,
07-Nov-2022 12:00,60,
07-Nov-2022 13:00,40.9,
07-Nov-2022 14:00,13.9,
07-Nov-2022 15:00,6.1,
07-Nov-2022 16:00,6.7,
07-Nov-2022 17:00,6.2,
07-Nov-2022 18:00,10.9,
07-Nov-2022 19:00,4.4,
07-Nov-2022 20:00,3.2,
07-Nov-2022 21:00,2.9,
07-Nov-2022 22:00,0.9,
07-Nov-2022 23:00,3.3,
08-Nov-2022 00:00,4.2,
08-Nov-2022 01:00,5.3,
08-Nov-2022 02:00,8,
08-Nov-2022 03:00,2.6,
08-Nov-2022 04:00,7.5,
08-Nov-2022 05:00,3.3,
08-Nov-2022 06:00,8.1,
08-Nov-2022 07:00,4.3,
08-Nov-2022 08:00,3.9,
08-Nov-2022 09:00,2.1,
08-Nov-2022 10:00,1.4,
08-Nov-2022 11:00,5.3,
08-Nov-2022 12:00,0.7,
08-Nov-2022 13:00,17.1,
08-Nov-2022 14:00,6.5,
08-Nov-2022 15:00,0.3,
08-Nov-2022 16:00,0.8,
08-Nov-2022 17:00,2.3,
08-Nov-2022 18:00,1,
08-Nov-2022 19:00,4.4,
08-Nov-2022 20:00,3,
08-Nov-2022 21:00,9.3,
08-Nov-2022 22:00,5.3,
08-Nov-2022 23:00,4,
09-Nov-2022 00:00,3.7,
09-Nov-2022 01:00,4.1,
09-Nov-2022 02:00,2.2,
09-Nov-2022 03:00,3.7,
09-Nov-2022 04:00,3.8,
09-Nov-2022 05:00,3.4,
09-Nov-2022 06:00,3.8,
09-Nov-2022 07:00,0.5,
09-Nov-2022 08:00,,AX
09-Nov-2022 09:00,,AX
09-Nov-2022 10:00,,AX
09-Nov-2022 11:00,,AX
09-Nov-2022 12:00,2.1,
09-Nov-2022 13:00,5.7,
09-Nov-2022 14:00,2.3,
09-Nov-2022 15:00,5.3,
09-Nov-2022 16:00,9.3,
09-Nov-2022 17:00,6.7,
09-Nov-2022 18:00,8,
09-Nov-2022 19:00,5.7,
09-Nov-2022 20:00,5.7,
09-Nov-2022 21:00,6.1,
09-Nov-2022 22:00,3.5,
09-Nov-2022 23:00,2.6,
10-Nov-2022 00:00,3.7,
10-Nov-2022 01:00,3.3,
10-Nov-2022 02:00,4,
10-Nov-2022 03:00,4.2,
10-Nov-2022 04:00,4.8,
10-Nov-2022 05:00,3.9,
10-Nov-2022 06:00,4,
10-Nov-2022 07:00,4,
10-Nov-2022 08:00,4.4,
10-Nov-2022 09:00,2.7,
10-Nov-2022 10:00,,AV
10-Nov-2022 11:00,,AV
10-Nov-2022 12:00,,AV
10-Nov-2022 13:00,,AV
10-Nov-2022 14:00,,AV
10-Nov-2022 15:00,,AV
10-Nov-2022 16:00,7.9,
10-Nov-2022 17:00,8.1,
10-Nov-2022 18:00,5.4,
10-Nov-2022 19:00,6,
10-Nov-2022 20:00,4.7,
10-Nov-2022 21:00,4.2,
10-Nov-2022 22:00,3.8,
10-Nov-2022 23:00,3.3,
11-Nov-2022 00:00,2.9,
11-Nov-2022 01:00,4.2,
11-Nov-2022 02:00,4,
11-Nov-2022 03:00,3.4,
11-Nov-2022 04:00,3.1,
11-Nov-2022 05:00,4,
11-Nov-2022 06:00,5.3,
11-Nov-2022 07:00,3.4,
11-Nov-2022 08:00,3.3,
11-Nov-2022 09:00,3.3,
11-Nov-2022 10:00,1.1,
11-Nov-2022 11:00,-1.1,
11-Nov-2022 12:00,1.1,
11-Nov-2022 13:00,1.1,
11-Nov-2022 14:00,3.1,
11-Nov-2022 15:00,5.7,
11-Nov-2022 16:00,18.7,
11-Nov-2022 17:00,10.8,
11-Nov-2022 18:00,8.5,
11-Nov-2022 19:00,6.4,
11-Nov-2022 20:00,6.3,
11-Nov-2022 21:00,4.6,
11-Nov-2022 22:00,3.6,
11-Nov-2022 23:00,4.3,
12-Nov-2022 00:00,3.5,
12-Nov-2022 01:00,4.1,
12-Nov-2022 02:00,2.9,
12-Nov-2022 03:00,4.8,
12-Nov-2022 04:00,2.6,
12-Nov-2022 05:00,4.4,
12-Nov-2022 06:00,9,
12-Nov-2022 07:00,4.4,
12-Nov-2022 08:00,0.6,
12-Nov-2022 09:00,-1.7,
12-Nov-2022 10:00,0.5,
12-Nov-2022 11:00,3.6,
12-Nov-2022 12:00,1.9,
12-Nov-2022 13:00,2.2,
12-Nov-2022 14:00,5.4,
12-Nov-2022 15:00,6.9,
12-Nov-2022 16:00,11.7,
12-Nov-2022 17:00,6.5,
12-Nov-2022 18:00,8.8,
12-Nov-2022 19:00,8.2,
12-Nov-2022 20:00,7.1,
12-Nov-2022 21:00,7.2,
12-Nov-2022 22:00,4.3,
12-Nov-2022 23:00,8.9,
13-Nov-2022 00:00,3.4,
13-Nov-2022 01:00,5.3,
13-Nov-2022 02:00,5.8,
13-Nov-2022 03:00,6.3,
13-Nov-2022 04:00,7.5,
13-Nov-2022 05:00,9,
13-Nov-2022 06:00,11.5,
13-Nov-2022 07:00,25.1,
13-Nov-2022 08:00,92.4,
13-Nov-2022 09:00,88.4,
13-Nov-2022 10:00,47.2,
13-Nov-2022 11:00,38.1,
13-Nov-2022 12:00,32.5,
13-Nov-2022 13:00,17.7,
13-Nov-2022 14:00,17.3,
13-Nov-2022 15:00,35.9,
13-Nov-2022 16:00,9,
13-Nov-2022 17:00,11.5,
13-Nov-2022 18:00,9.3,
13-Nov-2022 19:00,6.1,
13-Nov-2022 20:00,6.1,
13-Nov-2022 21:00,4,
13-Nov-2022 22:00,4.1,
13-Nov-2022 23:00,4.4,
14-Nov-2022 00:00,4.5,
14-Nov-2022 01:00,5.3,
14-Nov-2022 02:00,4.9,
14-Nov-2022 03:00,2.6,
14-Nov-2022 04:00,3.7,
14-Nov-2022 05:00,4.3,
14-Nov-2022 06:00,4.5,
14-Nov-2022 07:00,3.5,
14-Nov-2022 08:00,2.6,
14-Nov-2022 09:00,2.3,
14-Nov-2022 10:00,0.2,
14-Nov-2022 11:00,2.3,
14-Nov-2022 12:00,5,
14-Nov-2022 13:00,5.4,
14-Nov-2022 14:00,8.8,
14-Nov-2022 15:00,14.1,
14-Nov-2022 16:00,35.2,
14-Nov-2022 17:00,7,
14-Nov-2022 18:00,9.4,
14-Nov-2022 19:00,7.7,
14-Nov-2022 20:00,7.1,
14-Nov-2022 21:00,5.7,
14-Nov-2022 22:00,6,
14-Nov-2022 23:00,5.6,
15-Nov-2022 00:00,7,
15-Nov-2022 01:00,6.3,
15-Nov-2022 02:00,3.8,
15-Nov-2022 03:00,5,
15-Nov-2022 04:00,6.1,
15-Nov-2022 05:00,5,
15-Nov-2022 06:00,6.5,
15-Nov-2022 07:00,5.9,
15-Nov-2022 08:00,7.2,
15-Nov-2022 09:00,6.4,
15-Nov-2022 10:00,3.9,
15-Nov-2022 11:00,4.6,
15-Nov-2022 12:00,4.9,
15-Nov-2022 13:00,7.7,
15-Nov-2022 14:00,13.5,
15-Nov-2022 15:00,9.3,
15-Nov-2022 16:00,10.4,
15-Nov-2022 17:00,11,
15-Nov-2022 18:00,12.8,
15-Nov-2022 19:00,12.2,
15-Nov-2022 20:00,14,
15-Nov-2022 21:00,9.1,
15-Nov-2022 22:00,7.8,
15-Nov-2022 23:00,10,
16-Nov-2022 00:00,9.1,
16-Nov-2022 01:00,11.2,
16-Nov-2022 02:00,12.3,
16-Nov-2022 03:00,18.6,
16-Nov-2022 04:00,8.7,
16-Nov-2022 05:00,9.3,
16-Nov-2022 06:00,9.2,
16-Nov-2022 07:00,7,
16-Nov-2022 08:00,11.5,
16-Nov-2022 09:00,4.9,
16-Nov-2022 10:00,3.2,
16-Nov-2022 11:00,3.3,
16-Nov-2022 12:00,0.9,
16-Nov-2022 13:00,5.6,
16-Nov-2022 14:00,3.8,
16-Nov-2022 15:00,7.8,
16-Nov-2022 16:00,4.4,
16-Nov-2022 17:00,7.9,
16-Nov-2022 18:00,9.8,
16-Nov-2022 19:00,9.1,
16-Nov-2022 20:00,6.1,
16-Nov-2022 21:00,5.7,
16-Nov-2022 22:00,5.1,
16-Nov-2022 23:00,4.7,
17-Nov-2022 00:00,4.4,
17-Nov-2022 01:00,2.7,
17-Nov-2022 02:00,4,
17-Nov-2022 03:00,3.8,
17-Nov-2022 04:00,6.6,
17-Nov-2022 05:00,5.2,
17-Nov-2022 06:00,4.1,
17-Nov-2022 07:00,5.6,
17-Nov-2022 08:00,3.8,
17-Nov-2022 09:00,2.1,
17-Nov-2022 10:00,-0.1,
17-Nov-2022 11:00,0.2,
17-Nov-2022 12:00,2.9,
17-Nov-2022 13:00,-0.7,
17-Nov-2022 14:00,8.7,
17-Nov-2022 15:00,9.9,
17-Nov-2022 16:00,14.2,
17-Nov-2022 17:00,11.9,
17-Nov-2022 18:00,9.8,
17-Nov-2022 19:00,9.2,
17-Nov-2022 20:00,7.1,
17-Nov-2022 21:00,6.3,
17-Nov-2022 22:00,5.6,
17-Nov-2022 23:00,4.1,
18-Nov-2022 00:00,4.2,
18-Nov-2022 01:00,4.9,
18-Nov-2022 02:00,5.7,
18-Nov-2022 03:00,5.4,
18-Nov-2022 04:00,5.8,
18-Nov-2022 05:00,5.9,
18-Nov-2022 06:00,6.5,
18-Nov-2022 07:00,6.8,
18-Nov-2022 08:00,6.7,
18-Nov-2022 09:00,6.8,
18-Nov-2022 10:00,2.1,
18-Nov-2022 11:00,3.9,
18-Nov-2022 12:00,8.7,
18-Nov-2022 13:00,8.2,
18-Nov-2022 14:00,6.6,
18-Nov-2022 15:00,9.3,
18-Nov-2022 16:00,16,
18-Nov-2022 17:00,19.8,
18-Nov-2022 18:00,18.8,
18-Nov-2022 19:00,14.8,
18-Nov-2022 20:00,12.4,
18-Nov-2022 21:00,12.4,
18-Nov-2022 22:00,17.8,
18-Nov-2022 23:00,17.9,
19-Nov-2022 00:00,12.4,
19-Nov-2022 01:00,18,
19-Nov-2022 02:00,26.8,
19-Nov-2022 03:00,19.3,
19-Nov-2022 04:00,16.5,
19-Nov-2022 05:00,14.6,
19-Nov-2022 06:00,11.7,
19-Nov-2022 07:00,9.2,
19-Nov-2022 08:00,9.1,
19-Nov-2022 09:00,7.7,
19-Nov-2022 10:00,4.8,
19-Nov-2022 11:00,3.2,
19-Nov-2022 12:00,6.2,
19-Nov-2022 13:00,9.2,
19-Nov-2022 14:00,8.3,
19-Nov-2022 15:00,7.7,
19-Nov-2022 16:00,5.5,
19-Nov-2022 17:00,12.5,
19-Nov-2022 18:00,13.8,
19-Nov-2022 19:00,9.6,
19-Nov-2022 20:00,7.9,
19-Nov-2022 21:00,8.4,
19-Nov-2022 22:00,6.9,
19-Nov-2022 23:00,5.3,
20-Nov-2022 00:00,4.2,
20-Nov-2022 01:00,7.8,
20-Nov-2022 02:00,7.5,
20-Nov-2022 03:00,7.2,
20-Nov-2022 04:00,9,
20-Nov-2022 05:00,7,
20-Nov-2022 06:00,6.9,
20-Nov-2022 07:00,6,
20-Nov-2022 08:00,5.7,
20-Nov-2022 09:00,4.2,
20-Nov-2022 10:00,3,
20-Nov-2022 11:00,0.9,
20-Nov-2022 12:00,-0.5,
20-Nov-2022 13:00,4.1,
20-Nov-2022 14:00,2.8,
20-Nov-2022 15:00,8,
20-Nov-2022 16:00,5.6,
20-Nov-2022 17:00,10,
20-Nov-2022 18:00,9.6,
20-Nov-2022 19:00,5.9,
20-Nov-2022 20:00,7.1,
20-Nov-2022 21:00,5.9,
20-Nov-2022 22:00,6.8,
20-Nov-2022 23:00,3.8,
21-Nov-2022 00:00,5.3,
21-Nov-2022 01:00,4.6,
21-Nov-2022 02:00,5.4,
21-Nov-2022 03:00,6.5,
21-Nov-2022 04:00,6.5,
21-Nov-2022 05:00,6.8,
21-Nov-2022 06:00,8.1,
21-Nov-2022 07:00,6,
21-Nov-2022 08:00,6.1,
21-Nov-2022 09:00,5.9,
21-Nov-2022 10:00,2.7,
21-Nov-2022 11:00,1.2,
21-Nov-2022 12:00,3.7,
21-Nov-2022 13:00,4.4,
21-Nov-2022 14:00,2,
21-Nov-2022 15:00,39.2,
21-Nov-2022 16:00,20.3,
21-Nov-2022 17:00,6.6,
21-Nov-2022 18:00,13.1,
21-Nov-2022 19:00,9.1,
21-Nov-2022 20:00,6.6,
21-Nov-2022 21:00,5.9,
21-Nov-2022 22:00,6.2,
21-Nov-2022 23:00,5.2,
22-Nov-2022 00:00,6.7,
22-Nov-2022 01:00,8.6,
22-Nov-2022 02:00,6.8,
22-Nov-2022 03:00,5.4,
22-Nov-2022 04:00,6.7,
22-Nov-2022 05:00,10,
22-Nov-2022 06:00,10.1,
22-Nov-2022 07:00,8.6,
22-Nov-2022 08:00,7.2,
22-Nov-2022 09:00,4.5,
22-Nov-2022 10:00,3.3,
22-Nov-2022 11:00,2.3,
22-Nov-2022 12:00,4.6,
22-Nov-2022 13:00,3.9,
22-Nov-2022 14:00,4.2,
22-Nov-2022 15:00,5.5,
22-Nov-2022 16:00,26,
22-Nov-2022 17:00,4.9,
22-Nov-2022 18:00,11.5,
22-Nov-2022 19:00,5.8,
22-Nov-2022 20:00,7.4,
22-Nov-2022 21:00,5.4,
22-Nov-2022 22:00,4.8,
22-Nov-2022 23:00,4.4,
23-Nov-2022 00:00,6.2,
23-Nov-2022 01:00,6.1,
23-Nov-2022 02:00,5.8,
23-Nov-2022 03:00,7.7,
23-Nov-2022 04:00,6,
23-Nov-2022 05:00,7.4,
23-Nov-2022 06:00,9.7,
23-Nov-2022 07:00,9,
23-Nov-2022 08:00,9,
23-Nov-2022 09:00,7.6,
23-Nov-2022 10:00,6.6,
23-Nov-2022 11:00,7.2,
23-Nov-2022 12:00,8.4,
23-Nov-2022 13:00,7.3,
23-Nov-2022 14:00,8,
23-Nov-2022 15:00,10.1,
23-Nov-2022 16:00,8.8,
23-Nov-2022 17:00,5.1,
23-Nov-2022 18:00,8.1,
23-Nov-2022 19:00,8.8,
23-Nov-2022 20:00,8.1,
23-Nov-2022 21:00,8.3,
23-Nov-2022 22:00,8.6,
23-Nov-2022 23:00,10.1,
24-Nov-2022 00:00,11.5,
24-Nov-2022 01:00,7.4,
24-Nov-2022 02:00,8.3,
24-Nov-2022 03:00,5.1,
24-Nov-2022 04:00,8.5,
24-Nov-2022 05:00,6.9,
24-Nov-2022 06:00,8.3,
24-Nov-2022 07:00,5,
24-Nov-2022 08:00,3.1,
24-Nov-2022 09:00,-0.5,
24-Nov-2022 10:00,3.1,
24-Nov-2022 11:00,3.1,
24-Nov-2022 12:00,9.8,
24-Nov-2022 13:00,7.2,
24-Nov-2022 14:00,7.1,
24-Nov-2022 15:00,11,
24-Nov-2022 16:00,42.6,
24-Nov-2022 17:00,7.9,
24-Nov-2022 18:00,13,
24-Nov-2022 19:00,9.2,
24-Nov-2022 20:00,8.1,
24-Nov-2022 21:00,7,
24-Nov-2022 22:00,5.9,
24-Nov-2022 23:00,6.8,
25-Nov-2022 00:00,6.4,
25-Nov-2022 01:00,5.8,
25-Nov-2022 02:00,6.1,
25-Nov-2022 03:00,5.2,
25-Nov-2022 04:00,5.8,
25-Nov-2022 05:00,7.6,
25-Nov-2022 06:00,3.7,
25-Nov-2022 07:00,4.7,
25-Nov-2022 08:00,3.2,
25-Nov-2022 09:00,2.7,
25-Nov-2022 10:00,0.7,
25-Nov-2022 11:00,2.8,
25-Nov-2022 12:00,10.5,
25-Nov-2022 13:00,2.6,
25-Nov-2022 14:00,6.7,
25-Nov-2022 15:00,9.6,
25-Nov-2022 16:00,8.5,
25-Nov-2022 17:00,3.7,
25-Nov-2022 18:00,9.4,
25-Nov-2022 19:00,7.5,
25-Nov-2022 20:00,5.9,
25-Nov-2022 21:00,4.8,
25-Nov-2022 22:00,4.4,
25-Nov-2022 23:00,4,
26-Nov-2022 00:00,4.6,
26-Nov-2022 01:00,6,
26-Nov-2022 02:00,4.2,
26-Nov-2022 03:00,5.7,
26-Nov-2022 04:00,4,
26-Nov-2022 05:00,7.7,
26-Nov-2022 06:00,8.4,
26-Nov-2022 07:00,6.6,
26-Nov-2022 08:00,6.1,
26-Nov-2022 09:00,6.7,
26-Nov-2022 10:00,5.2,
26-Nov-2022 11:00,5.5,
26-Nov-2022 12:00,4.2,
26-Nov-2022 13:00,4.2,
26-Nov-2022 14:00,9.2,
26-Nov-2022 15:00,6.8,
26-Nov-2022 16:00,12.8,
26-Nov-2022 17:00,14.7,
26-Nov-2022 18:00,14.5,
26-Nov-2022 19:00,13.8,
26-Nov-2022 20:00,11.6,
26-Nov-2022 21:00,9.2,
26-Nov-2022 22:00,11,
26-Nov-2022 23:00,6.7,
27-Nov-2022 00:00,5.8,
27-Nov-2022 01:00,6,
27-Nov-2022 02:00,4.9,
27-Nov-2022 03:00,5.5,
27-Nov-2022 04:00,5.3,
27-Nov-2022 05:00,5.2,
27-Nov-2022 06:00,6.6,
27-Nov-2022 07:00,4.5,
27-Nov-2022 08:00,3.8,
27-Nov-2022 09:00,1,
27-Nov-2022 10:00,4.6,
27-Nov-2022 11:00,3,
27-Nov-2022 12:00,9.6,
27-Nov-2022 13:00,6.8,
27-Nov-2022 14:00,10.8,
27-Nov-2022 15:00,8.1,
27-Nov-2022 16:00,11,
27-Nov-2022 17:00,10.7,
27-Nov-2022 18:00,7.5,
27-Nov-2022 19:00,8.7,
27-Nov-2022 20:00,8.8,
27-Nov-2022 21:00,9.2,
27-Nov-2022 22:00,7.5,
27-Nov-2022 23:00,7.9,
28-Nov-2022 00:00,8.4,
28-Nov-2022 01:00,8.7,
28-Nov-2022 02:00,8.8,
28-Nov-2022 03:00,8.2,
28-Nov-2022 04:00,9.7,
28-Nov-2022 05:00,7.7,
28-Nov-2022 06:00,7.6,
28-Nov-2022 07:00,7.4,
28-Nov-2022 08:00,7.9,
28-Nov-2022 09:00,8.7,
28-Nov-2022 10:00,6.2,
28-Nov-2022 11:00,7.5,
28-Nov-2022 12:00,7.5,
28-Nov-2022 13:00,3,
28-Nov-2022 14:00,14.2,
28-Nov-2022 15:00,12.2,
28-Nov-2022 16:00,16.6,
28-Nov-2022 17:00,14.2,
28-Nov-2022 18:00,12.4,
28-Nov-2022 19:00,8.4,
28-Nov-2022 20:00,10.8,
28-Nov-2022 21:00,11.1,
28-Nov-2022 22:00,11.1,
28-Nov-2022 23:00,11.6,
29-Nov-2022 00:00,10,
29-Nov-2022 01:00,9.4,
29-Nov-2022 02:00,10.5,
29-Nov-2022 03:00,10.2,
29-Nov-2022 04:00,9.3,
29-Nov-2022 05:00,31.3,
29-Nov-2022 06:00,12.9,
29-Nov-2022 07:00,11.3,
29-Nov-2022 08:00,9.6,
29-Nov-2022 09:00,12.3,
29-Nov-2022 10:00,13.6,
29-Nov-2022 11:00,18.5,
29-Nov-2022 12:00,14.2,
29-Nov-2022 13:00,10.5,
29-Nov-2022 14:00,16.2,
29-Nov-2022 15:00,24.6,
29-Nov-2022 16:00,23.7,
29-Nov-2022 17:00,16.1,
29-Nov-2022 18:00,17,
29-Nov-2022 19:00,14.8,
29-Nov-2022 20:00,13.7,
29-Nov-2022 21:00,13.2,
29-Nov-2022 22:00,13.2,
29-Nov-2022 23:00,11,
30-Nov-2022 00:00,11.2,
30-Nov-2022 01:00,11.2,
30-Nov-2022 02:00,11,
30-Nov-2022 03:00,9.3,
30-Nov-2022 04:00,10.4,
30-Nov-2022 05:00,12.8,
30-Nov-2022 06:00,32.7,
30-Nov-2022 07:00,13.9,
30-Nov-2022 08:00,10.6,
30-Nov-2022 09:00,11.7,
30-Nov-2022 10:00,11.4,
30-Nov-2022 11:00,20.6,
30-Nov-2022 12:00,21.1,
30-Nov-2022 13:00,20,
30-Nov-2022 14:00,21.3,
30-Nov-2022 15:00,25.9,
30-Nov-2022 16:00,37.6,
30-Nov-2022 17:00,18.4,
30-Nov-2022 18:00,28.1,
30-Nov-2022 19:00,21.8,
30-Nov-2022 20:00,22.4,
30-Nov-2022 21:00,21,
30-Nov-2022 22:00,21,
30-Nov-2022 23:00,21.4,
